Location: Coed Ely
(51.5661°N, 3.4150°W)
Time: 01:10:38
(UTC+00:00)

FengYun 1-2 T - Pass Details

Date: 28 January 2021
Orbit: 847 x 881 km, 98.7° (Epoch: 28 February)

Event Time Altitude Azimuth Distance (km) Brightness Sun altitude
Rises 17:32:21 0° 159° (SSE) 3,438 7.4 -5.9°
Reaches altitude 10° 17:34:43 10° 159° (SSE) 2,510 6.7 -6.3°
Maximum altitude 17:40:18 83° 73° (ENE) 889 4.3 -7.1°
Drops below altitude 10° 17:45:59 10° 346° (NNW) 2,546 6.7 -7.9°
Sets 17:48:23 0° 346° (NNW) 3,491 7.4 -8.3°
